Wind_Speed
9 9 10 10 9 10 10 9 9 8 8 7 7 7 7 7 6 6 6 6 5 5 5 5 6 6 6 6 6 6 6 7 6 6 6 7 7 6 6 6 7 7 7
7 7 8 8 8 8 8 8 9 8 7 7 7 7 7 7 7 7 7 6 6 5 5 5 5 6 6 7 7 7 7 7 7 7 8 7 7 7 7 7 7 8 8
6 6 6 7 7 7 7 7 7 7 6 6 7 7 7 6 7 7 7 7 6 6 6 6 6 6 7 7 8 8 8 8 8 8 8 7 7 7 7 8 8 8 9
5 5 5 6 7 7 7 7 7 6 6 6 6 6 5 6 6 6 6 6 7 7 8 8 7 7 8 8 8 8 8 8 8 8 8 8 8 7 7 8 9 10 11
3 4 4 5 6 6 6 7 6 6 5 5 5 6 5 6 6 5 6 6 7 8 9 9 8 8 8 9 9 8 9 8 8 8 8 9 9 9 9 9 10 11 12
3 3 3 3 4 5 5 6 6 6 5 5 5 5 5 6 6 6 5 6 7 8 8 9 8 9 9 9 10 10 10 9 9 9 9 9 9 9 9 10 10 11 12
3 3 3 3 3 4 5 6 5 5 5 5 5 5 5 5 6 6 6 6 7 8 8 9 9 9 9 10 10 10 11 10 10 10 10 10 10 10 11 11 11 12 13
4 3 3 4 3 4 5 6 5 5 5 5 4 5 5 5 5 6 6 7 8 8 9 9 10 10 10 11 11 11 11 11 11 11 10 10 10 11 12 12 13 13 13
5 5 4 3 4 5 5 6 6 5 5 5 5 5 6 6 7 7 8 8 9 9 10 10 11 12 12 12 12 12 12 12 12 12 12 12 12 12 12 13 13 14 14
6 5 5 5 4 5 6 6 6 6 6 6 6 7 7 7 8 8 8 9 10 10 11 11 12 13 13 13 13 13 12 12 12 12 12 13 13 14 14 14 14 15 15
6 6 7 7 6 6 7 7 7 7 7 7 8 8 8 9 9 9 10 10 11 12 13 13 14 14 14 14 14 14 14 14 14 14 14 14 15 15 15 16 16 17 17
6 8 9 9 9 9 8 9 9 9 9 9 10 10 10 11 11 11 11 11 12 13 14 15 15 15 15 15 14 15 15 15 15 15 15 16 16 16 16 17 18 18 18
9 10 10 11 11 11 10 10 10 11 11 11 11 11 12 13 13 12 12 12 13 14 14 15 15 15 16 16 15 16 16 16 16 16 17 17 17 18 18 19 19 20 20
13 12 12 12 11 11 12 12 13 13 13 12 13 13 13 14 14 14 14 14 14 15 15 16 16 16 16 16 17 17 17 17 17 18 18 18 19 20 20 20 21 21 21
14 14 14 13 12 13 14 15 14 14 14 14 14 15 15 15 16 15 15 15 15 16 16 16 17 17 17 17 18 18 18 18 19 19 19 20 20 21 21 22 22 22 22
15 15 15 14 14 15 16 16 16 16 16 16 16 16 16 17 17 16 17 17 17 17 17 17 17 18 18 18 19 19 20 19 20 20 21 21 22 22 22 23 22 23 23
18 18 17 17 17 17 17 18 17 17 17 17 18 18 18 18 17 17 18 18 18 18 19 18 18 19 19 20 20 21 20 21 21 22 22 23 23 23 23 23 23 23 23
19 19 20 20 21 20 19 18 19 19 18 18 19 20 19 18 18 19 19 19 20 20 20 19 20 20 21 21 22 22 22 23 23 24 24 24 25 24 24 24 24 24 24
21 21 22 22 22 22 20 20 20 20 20 20 20 20 20 20 20 20 20 21 22 21 21 21 22 22 23 23 24 24 24 25 24 25 25 25 25 25 25 25 25 25 25
23 22 23 23 23 24 23 22 22 22 21 21 21 22 21 21 21 21 22 23 23 23 22 23 24 24 24 24 25 25 26 26 25 26 25 25 25 26 26 26 26 26 26
25 24 24 24 25 24 24 24 23 23 23 23 23 23 23 23 23 23 23 24 25 24 24 25 25 25 25 25 25 26 26 25 25 26 26 26 26 27 27 27 26 26 27
26 26 26 26 26 26 26 26 26 25 26 25 25 25 25 25 24 24 25 25 26 26 26 26 26 26 26 26 26 27 26 26 26 26 26 26 26 27 27 27 27 27 27
27 27 26 27 27 27 28 28 28 28 28 27 26 27 26 26 26 26 26 27 27 27 27 28 28 27 27 27 27 27 27 26 26 26 26 27 27 27 27 27 27 27 27
28 28 28 28 29 29 29 29 29 29 29 28 28 28 27 27 27 28 29 29 28 29 29 29 29 29 28 28 28 28 27 28 27 27 27 28 28 28 28 27 27 27 27
30 30 30 30 30 30 30 30 30 30 29 29 29 28 29 28 29 29 30 30 30 30 30 29 29 29 28 28 28 28 28 28 28 28 27 28 28 28 28 28 27 27 26
31 32 31 31 31 31 31 31 30 30 30 29 29 29 29 29 30 30 31 31 31 31 30 30 29 28 27 27 28 28 28 28 28 28 28 28 27 28 28 28 27 26 26
Wind_Direction
50 47 41 41 46 47 47 50 49 53 61 63 56 51 53 51 48 43 46 47 45 38 28 21 17 12 5 360 356 352 344 339 337 329 323 322 319 317 316 310 305 301 302
43 42 37 37 42 47 46 46 45 53 62 61 53 48 46 47 45 43 42 40 37 29 17 10 6 3 359 353 349 344 336 332 329 321 311 310 308 310 312 313 310 309 309
26 29 35 35 36 44 45 44 43 53 56 52 46 44 43 40 36 35 36 32 24 14 9 7 4 1 353 347 343 341 337 330 325 324 320 316 310 307 311 311 309 309 307
21 16 29 33 33 36 38 39 41 42 42 42 41 36 36 29 26 25 24 21 17 12 5 5 3 1 357 349 344 341 338 334 328 324 319 317 314 310 309 307 306 305 303
16 18 29 35 32 28 32 32 33 33 33 32 29 27 24 22 20 19 14 10 5 3 1 359 357 357 356 351 345 342 338 334 332 331 324 319 316 313 312 310 303 303 304
345 350 8 25 26 20 22 23 25 24 20 18 18 17 18 17 14 11 5 1 358 355 354 353 352 351 351 347 345 343 338 333 330 329 326 321 318 315 312 314 311 306 304
332 338 356 12 15 12 12 13 13 10 7 4 5 4 4 3 2 355 352 353 349 348 348 350 350 346 345 341 337 334 333 332 326 323 322 320 319 318 316 314 313 311 308
320 322 335 348 359 359 358 0 359 356 355 353 353 353 353 349 347 344 342 341 338 337 337 341 341 339 338 336 334 330 327 324 323 320 318 318 316 316 316 313 313 312 310
306 304 314 329 342 341 340 345 344 339 336 337 339 339 338 336 330 330 332 330 328 327 327 330 332 331 331 331 331 329 326 321 318 317 318 318 318 317 313 310 309 309 311
291 298 306 316 323 323 323 323 326 324 322 325 329 327 324 324 323 322 321 320 323 322 321 322 323 324 324 324 325 325 324 320 317 314 313 313 314 315 313 309 307 306 306
283 289 295 300 305 305 310 310 313 313 316 317 315 314 314 317 315 313 314 315 316 318 319 318 318 317 317 318 319 319 320 317 315 313 310 309 309 310 310 309 307 305 304
276 287 290 296 298 294 294 296 299 302 305 306 306 307 306 305 310 305 308 311 312 315 317 317 316 315 315 314 315 316 317 316 314 313 311 309 308 306 307 308 307 305 303
277 286 284 289 298 291 287 288 293 295 296 298 301 301 303 303 306 302 304 307 309 311 313 314 314 313 314 314 314 314 315 313 311 311 312 311 309 307 306 306 306 305 304
281 284 284 289 294 291 286 286 290 290 290 292 295 298 298 299 303 301 300 303 306 308 310 310 311 311 312 312 313 312 312 311 309 309 309 309 309 308 306 306 305 305 304
275 279 282 284 288 289 287 285 287 287 287 287 289 294 295 296 299 297 297 300 302 304 306 307 308 308 309 309 311 312 310 309 308 307 307 307 309 308 306 304 304 305 305
277 280 283 282 285 287 286 284 282 283 284 286 287 291 292 293 294 295 296 298 300 301 303 305 305 306 307 308 308 309 309 308 308 307 306 307 309 307 306 304 304 305 305
276 277 282 284 286 287 286 283 282 280 281 283 286 287 290 291 291 292 296 297 298 300 301 301 303 304 305 305 304 304 305 305 305 305 305 306 306 305 305 305 305 304 304
277 279 280 282 284 285 283 280 279 279 278 280 283 285 287 289 289 290 292 295 297 299 300 300 301 301 302 303 303 302 302 303 302 302 304 304 306 306 304 304 303 303 302
276 279 280 281 282 283 282 281 280 279 278 280 281 282 285 286 286 287 290 293 294 297 299 299 300 301 301 301 301 301 301 302 301 301 303 303 303 304 303 302 302 301 300
273 277 278 279 279 279 278 278 280 281 281 281 280 280 280 281 283 286 288 290 292 294 297 299 299 300 299 299 300 301 301 301 301 300 302 303 303 303 303 303 302 301 301
272 274 276 278 278 278 279 279 279 281 279 279 278 279 282 283 284 285 287 288 290 291 293 295 296 297 297 298 300 301 301 301 301 302 302 303 304 305 304 303 302 301 300
270 272 273 275 276 276 277 277 276 277 277 277 277 278 280 282 283 285 287 290 291 291 292 292 294 295 296 298 300 301 302 302 302 302 302 303 303 304 305 303 302 301 300
268 271 272 273 274 275 275 276 277 276 277 275 275 276 278 279 281 284 287 289 291 292 292 293 294 295 296 297 299 302 302 302 303 301 301 302 303 305 305 302 301 300 299
268 271 272 272 274 276 276 276 276 276 277 276 274 274 275 278 281 283 286 288 289 290 291 292 292 293 294 296 297 298 299 300 300 300 300 301 301 301 302 301 300 299 299
266 269 272 272 274 276 276 274 275 275 277 277 274 274 275 277 281 283 285 287 287 289 290 291 291 291 292 293 295 297 299 300 300 300 300 301 299 299 300 300 300 299 299
266 268 270 272 273 275 276 275 273 274 276 276 274 274 276 278 281 283 285 286 287 287 288 289 289 290 290 291 294 296 297 298 300 300 299 300 300 299 299 298 297 297 295
Height
5916 5915 5914 5913 5911 5910 5909 5908 5907 5906 5905 5905 5904 5903 5903 5902 5902 5901 5900 5900 5899 5898 5897 5896 5896 5895 5894 5892 5891 5889 5888 5887 5886 5885 5883 5882 5881 5879 5878 5877 5876 5874 5873
5917 5916 5915 5914 5913 5911 5910 5909 5908 5907 5906 5906 5905 5904 5903 5903 5902 5901 5901 5900 5899 5898 5897 5896 5895 5894 5893 5891 5890 5888 5887 5886 5884 5883 5882 5880 5879 5877 5876 5875 5873 5872 5871
5918 5917 5915 5914 5913 5912 5911 5910 5909 5908 5907 5906 5905 5904 5904 5903 5902 5902 5901 5900 5899 5898 5897 5896 5895 5893 5892 5890 5889 5887 5885 5884 5882 5881 5880 5878 5877 5876 5875 5873 5871 5870 5868
5917 5916 5915 5914 5913 5913 5912 5911 5909 5908 5907 5907 5906 5905 5904 5903 5903 5902 5901 5900 5899 5898 5896 5895 5894 5892 5891 5889 5887 5885 5884 5882 5880 5879 5877 5876 5875 5874 5873 5871 5869 5867 5866
5916 5916 5915 5914 5913 5912 5911 5910 5909 5908 5907 5907 5906 5905 5904 5903 5902 5901 5901 5900 5898 5897 5896 5894 5893 5891 5889 5888 5885 5883 5882 5880 5878 5877 5875 5873 5872 5870 5869 5868 5867 5865 5863
5915 5915 5914 5913 5913 5912 5911 5910 5909 5908 5907 5906 5906 5905 5904 5903 5902 5901 5900 5899 5898 5897 5895 5894 5892 5890 5888 5886 5884 5882 5880 5878 5876 5875 5873 5871 5870 5868 5866 5865 5863 5861 5860
5914 5914 5913 5912 5912 5911 5910 5909 5908 5908 5907 5906 5905 5904 5904 5903 5902 5901 5900 5898 5897 5896 5894 5892 5891 5889 5887 5885 5882 5880 5878 5876 5874 5872 5870 5869 5867 5865 5863 5861 5859 5858 5856
5912 5912 5912 5911 5910 5910 5909 5909 5908 5907 5906 5905 5904 5904 5903 5902 5901 5899 5898 5897 5896 5894 5892 5891 5889 5887 5885 5883 5880 5878 5876 5874 5872 5869 5867 5866 5864 5862 5860 5858 5856 5854 5852
5911 5911 5910 5910 5909 5909 5908 5907 5906 5905 5905 5904 5903 5902 5902 5901 5899 5898 5897 5896 5894 5893 5891 5889 5887 5885 5883 5880 5878 5875 5873 5871 5869 5867 5865 5862 5860 5858 5856 5854 5852 5851 5848
5909 5909 5909 5908 5908 5907 5907 5906 5905 5904 5903 5902 5901 5901 5900 5899 5898 5897 5895 5894 5892 5890 5889 5887 5885 5882 5880 5878 5875 5873 5870 5868 5866 5864 5861 5859 5857 5855 5852 5850 5848 5846 5844
5906 5907 5907 5906 5906 5905 5905 5904 5904 5902 5901 5900 5900 5899 5898 5897 5896 5895 5893 5892 5890 5888 5886 5884 5882 5879 5877 5875 5872 5870 5867 5865 5862 5860 5858 5856 5853 5851 5849 5846 5844 5842 5840
5904 5904 5904 5904 5904 5903 5903 5903 5902 5901 5900 5899 5898 5896 5895 5894 5893 5892 5890 5889 5887 5885 5883 5881 5878 5876 5873 5871 5868 5866 5864 5861 5859 5857 5854 5852 5849 5847 5845 5842 5840 5837 5835
5901 5901 5901 5901 5900 5900 5900 5900 5899 5898 5897 5896 5895 5894 5892 5891 5890 5889 5887 5885 5884 5882 5880 5877 5875 5872 5870 5867 5865 5863 5860 5858 5855 5853 5850 5848 5845 5843 5840 5837 5835 5832 5830
5898 5897 5897 5897 5897 5896 5896 5896 5896 5895 5894 5893 5892 5890 5889 5888 5886 5885 5884 5882 5880 5878 5876 5874 5871 5869 5866 5864 5861 5859 5856 5853 5851 5848 5846 5843 5840 5838 5835 5832 5830 5827 5825
5894 5894 5894 5894 5894 5893 5893 5892 5891 5891 5890 5889 5888 5887 5885 5884 5883 5881 5880 5878 5876 5874 5872 5869 5867 5865 5862 5860 5857 5855 5852 5849 5846 5843 5840 5838 5835 5832 5829 5827 5824 5822 5819
5890 5890 5890 5890 5890 5889 5888 5888 5887 5887 5886 5885 5884 5882 5881 5880 5878 5877 5875 5874 5872 5870 5867 5865 5862 5860 5857 5855 5852 5850 5847 5844 5841 5838 5835 5832 5829 5827 5824 5821 5819 5816 5813
5885 5885 5885 5885 5885 5884 5884 5883 5882 5882 5881 5880 5879 5878 5876 5875 5873 5872 5870 5869 5867 5864 5862 5860 5857 5855 5852 5850 5847 5844 5842 5839 5836 5833 5830 5827 5824 5821 5818 5815 5812 5810 5807
5880 5879 5879 5879 5879 5879 5878 5878 5877 5876 5875 5875 5874 5872 5871 5870 5868 5867 5865 5863 5861 5859 5857 5854 5852 5849 5847 5844 5842 5839 5836 5833 5830 5827 5824 5821 5818 5815 5812 5809 5806 5804 5801
5874 5874 5874 5873 5873 5872 5872 5871 5871 5870 5869 5868 5867 5866 5865 5864 5862 5861 5859 5857 5855 5853 5851 5849 5846 5844 5841 5838 5835 5832 5830 5827 5824 5821 5818 5815 5812 5809 5806 5803 5800 5798 5795
5868 5868 5867 5867 5867 5866 5865 5865 5864 5863 5863 5862 5861 5860 5858 5857 5856 5854 5853 5851 5849 5847 5844 5842 5840 5837 5834 5831 5828 5825 5823 5820 5817 5814 5811 5808 5805 5802 5799 5796 5793 5791 5788
5862 5862 5861 5860 5859 5859 5859 5858 5858 5856 5855 5855 5854 5853 5852 5850 5849 5848 5846 5844 5842 5840 5838 5836 5833 5830 5828 5825 5822 5818 5815 5813 5810 5807 5804 5801 5798 5795 5792 5789 5786 5783 5780
5854 5854 5854 5853 5853 5852 5852 5851 5851 5850 5849 5848 5847 5846 5845 5843 5842 5840 5839 5837 5835 5833 5830 5828 5826 5823 5820 5817 5814 5811 5808 5805 5803 5800 5797 5794 5791 5788 5785 5782 5779 5776 5773
5847 5847 5847 5846 5845 5845 5844 5844 5842 5841 5840 5839 5839 5838 5837 5836 5834 5833 5831 5829 5827 5825 5823 5821 5818 5816 5813 5810 5807 5804 5801 5798 5795 5792 5789 5786 5783 5780 5777 5774 5771 5768 5765
5839 5839 5839 5838 5837 5837 5836 5835 5834 5833 5831 5831 5830 5829 5828 5828 5827 5825 5824 5822 5819 5817 5815 5812 5810 5807 5805 5802 5799 5796 5794 5791 5788 5785 5782 5779 5775 5772 5769 5767 5764 5761 5757
5830 5829 5829 5829 5829 5828 5827 5826 5825 5824 5823 5822 5821 5820 5819 5819 5818 5817 5815 5813 5811 5808 5806 5804 5801 5799 5797 5794 5791 5788 5786 5783 5780 5776 5774 5771 5768 5765 5762 5759 5756 5753 5750
5819 5820 5820 5820 5819 5818 5817 5816 5815 5814 5814 5813 5812 5812 5811 5810 5809 5808 5806 5804 5802 5799 5797 5795 5792 5790 5788 5785 5783 5780 5777 5774 5772 5768 5766 5763 5760 5757 5754 5751 5748 5745 5742